SCP
0 0 0 0 0 0 0 0 0 0 0 0 0 0 0 0 0 0 0 0 0 0 0 0 0 0 0 0 0 0 0 0 0 0 0 0 0 0 0 0 0 0 0 0
0 0 0 0 0 0 0 0 0 0 0 0 0 0 0 0 0 0 0 0 0 0 0 0 0 0 0 0 0 0 0 0 0 0 0 0 0 0 0 0 0 0 0 0
0 0 0 0 0 0 0 0 0 0 0 0 0 0 0 0 0 0 0 0 0 0 0 0 0 0 0 0 0 0 0 0 0 0 0 0 0 0 0 0 0 0 0 0
0 0 0 0 0 0 0 0 0 0 0 0 0 0 0 0 0 0 0 0 0 0 0 0 0 0 0 0 0 0 0 0 0 0 0 0 0 0 0 0 0 0 0 0
0 0 0 0 0 0 0 0 0 0 0 0 0 0 0 0 0 0 0 0 0 0 0 0 0 0 0 0 0 0 0 0 0 0 0 0 0 0 0 0 0 0 0 0
0 0 0 0 0 0 0 0 0 0 0 0 0 0 0 0 0 0 0 0 0 0 0 0 0 0 0 0 0 0 0 0 0 0 0 0 0 0 0 0 0 0 0 0
0 0 0 0 0 0 0 0 0 0 0 0 0 0 0 0 0 0 0 0 0 0 0 0 0 0 0 0 0 0 0 0 0 0 0 0 0 0 0 0 0 0 0 0
0 0 0 0 0 0 0 0 0 0 0 0 0 0 0 0 0 0 0 0 0 0 0 0 0 0 0 0 0 0 0 0 0 0 0 0 0 0 0 0 0 0 0 0
0 0 0 0 0 0 0 0 0 0 0 0 0 0 0 0 0 0 0 0 0 0 0 0 0 0 0 0 0 0 0 0 0 0 0 0 0 0 0 0 0 0 0 0
0 0 0 0 0 0 0 0 0 0 0 0 0 0 0 0 0 0 0 0 0 0 0 0 0 0 0 0 0 0 0 0 0 0 0 0 0 0 0 0 0 0 0 0
0 0 0 0 0 0 0 0 0 0 0 0 0 0 0 0 0 0 0 0 0 0 0 0 0 0 0 0 0 0 0 0 0 0 0 0 0 0 0 0 0 0 0 0
0 0 0 0 0 0 0 0 0 0 0 0 0 0 0 0 0 0 0 0 0 0 0 0 0 0 0 0 0 0 0 0 0 0 0 0 0 0 0 0 0 0 0 0
0 0 0 0 0 0 0 0 0 0 0 0 0 0 0 0 0 0 0 0 0 0 0 0 0 0 0 0 0 0 0 0 0 0 0 0 0 0 0 0 0 0 0 0
0 0 0 0 0 0 0 0 0 0 0 0 0 0 0 0 0 0 0 0 0 0 0 0 0 0 0 0 0 0 0 0 0 0 0 0 0 0 0 0 0 0 0 0
0 0 0 0 0 0 0 0 0 0 0 0 0 0 0 0 0 0 0 0 0 0 0 0 0 0 0 0 0 0 0 0 0 0 0 0 0 0 0 0 0 0 0 0
0 0 0 0 0 0 0 0 0 0 0 0 0 0 0 0 0 0 0 0 0 0 0 0 0 0 0 0 0 0 0 0 0 0 0 0 0 0 0 0 0 0 0 0
0 0 0 0 0 0 0 0 0 0 0 0 0 0 0 -0 0 0 0 0 0 0 0 0 0 0 0 0 0 0 0 0 0 0 0 0 0 0 0 0 0 0 0 0
0 0 0 0 0 0 0 0 0 0 0 0 0 0 0 0 0 0 0 0 0 0 0 0 0 0 0 0 0 0 0 0 0 0 0 0 0 0 0 0 0 0 0 0
0 0 0 0 0 0 0 0 -0 -0 0 0 0 0 0 0 0 0 0 0 0 0 0 0 0 0 0 0 0 0 0 0 0 0 0 0 0 0 0 0 0 0 0 0
0 0 0 0 0 0 0 0 0 0 0 0 0 0 0 0 0 0 0 0 0 0 0 0 0 0 0 0 0 0 0 0 0 0 0 0 0 0 0 0 0 0 0 0
0 0 0 0 0 0 0 0 0 0 0 0 0 0 0 0 0 0 0 0 0 0 0 0 0 0 0 0 0 0 0 0 0 0 0 0 0 0 0 0 0 0 0 0
0 0 0 0 0 0 0 0 0 0 0 0 0 0 0 0 0 0 0 0 0 0 0 0 0 0 0 0 0 0 0 0 0 0 0 0 0 0 0 0 0 0 0 0
0 0 0 0 0 0 0 0 0 0 0 0 0 0 0 0 0 0 0 0 0 0 0 0 0 0 0 0 0 0 0 0 0 0 0 0 0 0 0 0 0 0 0 0
0 0 0 0 0 0 0 0 0 0 0 0 0 0 0 0 0 0 0 0 0 0 0 0 0 0 0 0 0 0 0 0 0 0 0 0 0 0 0 0 0 0 0 0
0 0 0 0 0 0 0 0 0 0 0 0 0 0 0 0 0 0 0 0 0 0 0 0 0 0 0 0 0 0 0 0 0 0 0 0 0 0 0 0 0 0 0 0
0 0 0 0 0 0 0 0 0 0 0 0 0 0 0 0 0 0 0 0 0 0 0 0 0 0 0 0 0 0 0 0 0 0 0 0 0 0 0 0 0 0 0 0
0 0 0 0 0 0 0 0 0 0 0 0 0 0 0 0 0 0 0 0 0 0 0 0 0 0 0 0 0 0 0 0 0 0 0 0 0 0 0 0 0 0 0 0
Wind_Speed
8 9 7 8 9 7 8 8 6 6 5 5 3 3 3 3 2 1 1 0 0 1 1 2 2 3 3 3 3 3 3 3 3 3 4 3 3 3 2 2 2 2 2 1
7 8 7 10 10 10 9 10 10 9 9 4 2 2 2 3 3 3 2 1 1 0 1 2 2 3 3 3 3 3 3 3 4 4 4 4 4 3 3 2 2 3 3 3
5 4 5 8 9 9 7 6 6 8 6 2 2 3 3 3 4 3 2 2 2 1 1 0 1 2 2 2 2 3 3 3 3 3 3 3 3 4 3 3 3 3 3 3
5 5 6 6 1 2 5 7 7 6 4 2 3 2 3 3 4 3 3 2 1 1 1 1 1 1 1 2 2 2 2 3 3 3 3 3 3 4 4 3 3 3 3 3
3 5 9 4 3 3 3 5 6 7 5 3 1 0 2 3 4 4 4 3 2 2 2 1 1 1 1 1 2 2 2 3 3 2 2 3 4 3 3 3 3 3 3 3
3 4 7 3 3 3 1 5 3 4 4 3 3 2 3 2 3 3 3 3 3 2 2 2 1 1 1 1 1 1 2 2 2 2 2 2 2 3 3 3 3 3 4 4
7 6 9 2 4 4 3 5 1 2 2 3 5 4 2 2 3 3 3 3 4 3 3 2 2 2 1 1 0 0 1 1 2 2 2 2 2 2 2 3 3 3 3 4
6 7 10 4 5 6 5 1 1 1 2 3 3 2 2 2 3 3 3 4 4 3 3 2 2 2 2 1 1 1 1 1 1 1 1 2 2 2 2 2 3 3 3 3
8 10 4 7 7 4 1 1 1 2 2 2 3 3 3 3 4 4 4 4 4 4 4 3 3 3 3 2 2 2 1 1 1 1 1 1 1 1 1 2 2 2 2 2
7 9 7 7 7 6 5 5 3 3 3 3 4 4 4 3 4 4 4 4 4 4 4 4 4 4 4 3 3 3 2 1 1 1 1 1 1 1 1 1 1 1 2 2
9 9 8 9 8 8 6 5 4 4 4 5 5 5 5 4 4 4 4 4 4 5 5 5 4 4 4 4 3 3 3 2 2 1 1 1 1 0 0 0 0 1 0 1
10 7 6 5 2 3 4 5 6 5 5 5 5 6 5 5 5 4 4 4 5 5 5 5 5 5 4 4 4 4 3 3 2 2 1 1 1 0 1 1 2 2 2 2
12 6 5 5 3 2 4 4 4 5 6 6 5 5 5 5 4 4 5 6 6 6 6 5 5 5 5 5 5 5 4 3 2 2 2 2 1 1 1 1 2 2 2 4
10 8 8 7 7 6 5 4 3 4 5 5 5 4 4 4 4 5 6 6 6 5 5 5 5 5 5 5 5 4 4 4 3 2 2 2 2 2 1 1 2 2 3 4
9 9 9 6 5 4 3 3 5 5 5 5 4 4 5 5 6 5 5 4 4 5 5 5 5 5 5 5 5 5 4 3 3 2 2 2 2 2 1 2 2 2 1 2
7 7 8 8 8 6 5 6 7 7 6 5 5 5 5 5 5 4 4 4 5 6 6 5 6 5 5 5 5 4 4 6 4 3 2 2 2 2 2 2 2 2 2 2
8 8 8 8 8 8 7 7 7 6 5 5 5 4 4 3 4 4 4 4 5 5 5 6 5 4 5 6 6 4 4 4 6 3 3 3 3 3 2 2 2 2 2 2
10 10 8 7 7 7 7 7 6 6 6 5 4 4 4 5 6 5 4 3 3 4 5 5 5 5 5 5 5 4 4 4 4 4 3 3 3 3 2 2 2 2 2 2
7 8 7 7 6 6 6 6 6 6 5 5 5 5 6 6 5 4 3 4 5 6 5 4 6 5 5 6 5 4 4 4 4 3 3 4 4 3 3 3 2 2 2 2
6 6 6 5 5 5 5 5 5 4 4 5 5 5 5 5 4 4 4 5 6 5 4 4 5 4 5 5 6 4 5 5 5 4 4 4 4 3 3 3 3 3 2 2
6 6 6 5 5 5 5 5 5 5 4 5 5 6 5 5 4 4 4 5 4 4 4 6 4 4 4 5 6 4 4 4 4 4 4 4 4 3 3 3 3 2 2 2
4 5 5 5 4 4 4 4 4 4 4 4 5 5 4 4 4 4 5 5 4 5 4 3 3 5 6 6 4 4 4 4 4 4 4 4 4 3 3 3 3 3 2 2
3 4 4 4 5 4 3 4 4 5 5 5 5 6 6 5 4 4 4 3 3 5 4 3 6 8 8 4 3 4 4 4 4 4 4 4 4 3 3 3 3 2 2 2
3 4 4 3 3 3 4 5 4 4 5 5 5 5 5 4 3 4 4 5 6 6 4 5 9 9 7 3 3 4 4 4 4 4 3 3 3 3 3 3 3 3 3 3
4 3 4 4 5 5 5 4 3 3 4 3 4 4 4 4 4 3 3 4 6 6 3 6 9 8 5 3 4 4 4 4 4 4 4 3 3 3 3 3 3 3 3 3
5 5 5 6 5 4 3 3 3 4 4 4 3 3 3 3 3 3 2 4 5 6 4 3 4 5 3 4 4 4 4 4 4 4 4 4 4 4 3 3 4 3 3 3
5 4 4 4 4 4 4 5 5 5 5 5 4 4 4 3 3 3 4 3 3 3 3 3 3 3 4 4 4 4 3 3 3 4 4 4 3 3 4 4 3 3 3 3
Wind_Direction
275 275 268 259 257 243 226 226 242 268 279 263 239 220 210 197 186 202 221 242 329 345 357 358 7 14 23 24 24 27 37 36 26 23 25 26 25 21 23 29 18 8 11 358
280 254 251 260 251 241 238 235 244 263 275 255 213 183 193 192 191 212 222 211 198 339 9 3 11 16 19 22 23 27 33 30 25 26 27 26 23 23 24 26 21 28 30 28
285 300 303 269 237 217 217 215 221 241 247 225 217 209 207 207 204 211 214 206 186 183 167 65 28 21 20 14 19 34 34 29 27 27 32 20 18 26 24 25 33 37 33 30
288 315 262 245 120 173 218 237 228 243 255 232 229 219 216 203 197 202 198 194 179 157 121 98 74 46 33 30 40 47 44 36 32 33 35 27 31 32 25 27 32 31 29 26
279 284 277 245 199 183 207 257 221 229 242 232 175 7 261 201 188 189 181 173 165 154 142 126 102 80 62 42 44 48 44 38 31 33 37 36 34 26 22 30 30 27 32 33
263 267 262 258 132 105 96 270 220 195 216 199 144 206 246 180 161 165 160 158 155 148 137 133 144 130 103 72 59 51 44 37 33 41 45 44 33 26 24 33 30 28 34 34
234 252 266 236 142 127 183 245 163 166 194 185 189 207 193 149 161 166 167 166 159 156 159 170 163 141 143 140 160 103 77 59 49 50 49 51 44 37 34 37 36 34 36 28
202 226 251 173 151 197 225 187 168 183 195 204 211 213 174 172 181 181 180 176 168 166 177 176 163 155 176 209 202 140 117 92 66 59 50 47 56 45 42 45 41 29 28 19
209 223 223 180 203 215 175 229 222 215 221 209 223 233 219 206 202 200 193 190 180 179 186 185 176 171 197 215 173 156 152 168 152 102 81 69 65 51 41 41 42 20 17 10
263 259 250 229 225 223 214 224 234 236 235 220 229 233 232 221 210 206 201 196 189 186 193 199 193 190 198 193 172 168 184 199 172 142 116 78 64 58 63 39 34 19 8 354
252 266 273 257 236 226 221 216 223 231 229 227 229 234 231 229 221 211 204 198 192 197 204 207 196 195 192 184 175 184 196 200 183 167 163 149 127 118 124 105 92 36 0 338
237 231 229 254 228 197 204 218 221 226 235 232 226 232 231 231 223 213 207 200 200 204 208 209 198 197 191 184 179 184 196 199 191 180 173 167 169 352 13 9 24 21 4 345
245 258 261 274 259 227 229 231 227 228 232 235 231 227 228 232 226 215 209 203 206 208 208 206 203 202 194 184 182 189 196 194 190 183 178 183 189 197 258 307 314 320 329 335
244 253 258 250 247 240 232 226 229 238 238 235 235 231 229 231 226 221 219 213 209 206 206 202 204 208 194 180 181 194 197 197 190 190 189 190 196 205 216 243 284 293 296 311
239 232 238 244 239 231 222 220 233 237 235 236 231 227 226 229 230 229 225 211 203 207 209 204 209 213 187 178 183 193 194 191 188 190 192 191 190 198 218 236 255 276 296 308
242 241 239 239 239 236 230 229 233 238 232 230 228 227 228 230 234 233 222 202 201 214 214 210 215 209 184 179 183 190 197 195 187 188 191 189 192 202 218 231 248 264 274 289
232 237 232 234 234 232 229 229 231 232 227 226 227 226 225 230 238 237 228 215 213 219 214 212 215 200 185 183 183 189 190 193 191 188 194 196 198 204 212 221 238 253 261 278
227 230 227 226 226 228 231 229 226 224 223 222 215 213 217 221 231 235 229 219 224 236 228 212 202 192 188 186 184 185 185 187 187 191 194 199 205 205 208 217 232 248 263 279
231 231 233 232 227 220 221 220 217 216 214 206 205 215 222 227 230 229 215 207 217 235 234 207 195 190 190 191 183 183 184 186 188 191 192 208 212 209 210 216 229 239 252 266
234 230 227 228 220 212 215 213 207 208 207 199 203 217 231 233 224 217 213 223 224 221 206 192 189 191 190 189 184 182 184 187 190 192 193 198 205 210 212 219 226 233 241 251
231 229 224 219 218 214 209 203 198 206 206 200 204 216 226 231 219 207 213 242 243 205 192 192 190 192 188 185 184 183 187 189 192 195 198 202 207 210 214 218 225 233 240 249
228 226 223 216 210 215 208 196 193 196 201 211 218 216 218 226 222 222 225 228 225 196 189 193 193 196 194 185 180 184 188 190 193 192 195 202 207 211 214 217 225 233 238 244
228 223 217 212 210 209 201 196 195 196 206 214 217 217 217 217 206 209 242 227 197 196 193 201 203 198 193 182 179 183 184 187 191 193 197 201 204 208 214 217 222 228 234 240
222 219 216 207 189 196 216 220 206 204 211 219 221 217 210 212 226 220 213 201 198 200 205 205 200 197 189 178 178 182 184 187 189 192 195 198 201 207 211 213 219 225 231 237
216 212 207 199 206 218 223 216 209 213 214 224 230 224 211 202 210 214 194 194 197 197 203 201 197 194 184 175 181 185 186 189 190 188 191 195 202 209 215 215 217 224 230 234
211 213 215 213 214 215 204 198 212 218 210 221 231 220 207 199 197 197 194 197 199 199 196 186 184 184 179 182 186 186 186 192 199 197 194 198 201 207 213 217 221 226 230 235
215 216 220 226 222 211 203 203 214 222 214 210 220 213 197 189 187 190 194 194 191 187 181 177 175 176 179 183 183 182 182 184 187 190 192 197 201 208 214 218 223 226 228 233